Overview Statistics Trail Chart Weather Telemetry Raw packets
 

This is the latest recevied weather packets stored in our database for station/object N6ZHV-13. If no packets are shown the sender has not sent any weather packets the latest 10 day(s).

<< 101 102 103 104 105 106 107 >>
Time Temp. Humidity Pressure Rain* Wind** Luminosity Snow
1787939533 33.33° C 39% 1008.3 hPa 0 mm - - -
1787939232 32.78° C 40% 1008.3 hPa 0 mm - - -
1787938933 32.78° C 39% 1008.4 hPa 0 mm - - -
1787938633 32.78° C 41% 1008.4 hPa 0 mm - - -
1787938334 32.78° C 40% 1008.4 hPa 0 mm - - -
1787938033 32.22° C 42% 1008.4 hPa 0 mm - - -
1787937733 32.22° C 42% 1008.5 hPa 0 mm - - -
1787937433 31.67° C 43% 1008.5 hPa 0 mm - - -
1787937133 31.67° C 44% 1008.4 hPa 0 mm - - -
1787936836 31.11° C 45% 1008.4 hPa 0 mm - - -
1787936533 30.56° C 46% 1008.1 hPa 0 mm - - -
1787936233 30.56° C 48% 1008.3 hPa 0 mm - - -
1787935933 30.56° C 50% 1008.3 hPa 0 mm - - -
1787935633 30° C 51% 1008.3 hPa 0 mm - - -
1787935333 29.44° C 55% 1008.3 hPa 0 mm - - -
1787935033 29.44° C 56% 1008.3 hPa 0 mm - - -
1787934733 28.89° C 57% 1008.3 hPa 0 mm - - -
1787934433 28.89° C 59% 1008.3 hPa 0 mm - - -
1787934133 28.33° C 60% 1008.3 hPa 0 mm - - -
1787933833 28.33° C 62% 1008.1 hPa 0 mm - - -
1787933533 27.78° C 61% 1008 hPa 0 mm - - -
1787933233 27.78° C 62% 1008 hPa 0 mm - - -
1787932933 27.22° C 68% 1007.9 hPa 0 mm - - -
1787932633 26.67° C 69% 1007.9 hPa 0 mm - - -
1787932333 26.67° C 70% 1007.9 hPa 0 mm - - -

* Rain latest hour (hover to see other rain measurements)
** Current wind speed in m/s (hover to see current wind gust speed)